Regional Weather Roundup
Issued by NWS

Home | Current Version | Previous Version | Text Only | Print | Product List | Glossary Off
Versions: 1 2 3 4 5 6 7 8 9 10 11 12 13 14 15 16 17 18 19 20 21 22 23 24 25 26 27 28 29 30 31 32 33 34 35 36 37 38 39 40 41 42 43 44 45 46 47 48 49 50

000
ASUS45 KSLC 010810
RWRUT
UTAH REGIONAL WEATHER ROUNDUP
NATIONAL WEATHER SERVICE SALT LAKE CITY UT
200 AM MDT SAT AUG 01 2015

UTZ001>011-023>025-010900-

NORTHERN UTAH

CITY           SKY/WX    TMP DP  RH WIND       PRES   REMARKS
BRIGHAM CITY   CLEAR     70  39  32 CALM      30.12F
HILL AFB       PTCLDY    73  32  21 E13       30.15F
LOGAN          CLEAR     53  44  71 CALM      30.15F
OGDEN          PTCLDY    70  33  25 S8        30.12F
PROVO AIRPORT  PTCLDY    63  34  34 SE5       30.15S
SALT LAKE CITY PTCLDY    70  38  31 SE5       30.11F
VERNAL         CLEAR     67  33  28 CALM      30.16F
WENDOVER       MOCLDY    73  28  19 NE3       30.13S
HEBER CITY     PTCLDY    52  37  58 CALM      30.25S
WEST JORDAN    CLEAR     70  30  23 CALM      30.15F

$$

UTZ012>022-026-027-010900-

SOUTHERN/CENTRAL UTAH

CITY           SKY/WX    TMP DP  RH WIND       PRES   REMARKS
BLANDING       CLOUDY    69  53  55 CALM      30.36S
BRYCE CANYON   MOCLDY    55  45  68 W6        30.40F
CEDAR CITY     PTCLDY    69  45  41 SE8       30.22F
DELTA          PTCLDY    70  22  16 N7        30.13F
HANKSVILLE     PTCLDY    79  46  31 S5        30.14S
MILFORD        CLEAR     69  45  41 S7        30.16F
MOAB/CYNLANDS  CLEAR     77  49  37 SE10      30.12F
PRICE          CLEAR     64  16  15 CALM      30.22F
ST GEORGE      MOSUNNY   82  54  36 E8        30.04F
KANAB          MOCLDY    70  55  60 N3        30.25F

$$

REGIONAL REPORTS     COLORADO/ARIZONA

CITY           SKY/WX    TMP DP  RH WIND       PRES   REMARKS
CRAIG, CO      CLEAR     49  36  61 CALM      30.25S
GRAND JUNCTION PTCLDY    73  47  39 SE12      30.16S
RIFLE          CLEAR     63  37  38 CALM      30.23S
MONTROSE       PTCLDY    65  48  54 SE6       30.28F
CORTEZ         CLOUDY    63  61  93 CALM      30.30F
PAGE, AZ       MOCLDY    79  50  36 S7        30.13F
GRAND CANYON   CLOUDY    62  55  77 N3        30.32F
KINGMAN        CLOUDY    79  51  37 S5        30.08S
FLAGSTAFF      CLOUDY    59  54  83 CALM      30.37F

$$

REGIONAL REPORTS    NEVADA/IDAHO/WYOMING

CITY           SKY/WX    TMP DP  RH WIND       PRES   REMARKS
LAS VEGAS, NV  CLOUDY    92  55  28 SW7       29.90F HX  90
ELY            MOCLDY    64  24  21 CALM      30.28S
ELKO           CLEAR     65  24  21 SE5       30.19F
POCATELLO, ID  CLEAR     59  32  36 E6        30.17F
BURLEY         CLEAR     60  36  40 SE5       30.12F
EVANSTON, WY   CLEAR     64  26  23 CALM      30.35F
ROCK SPRINGS   CLEAR     60  23  24 SW9       30.29F
KEMMERER       CLEAR     55  32  41 N10       30.35F

$$



USA.gov is the U.S. government's official web portal to all federal, state and local government web resources and services.